Time,TemperatureF,DewpointF,PressureIn,WindDirection,WindDirectionDegrees,WindSpeedMPH,WindSpeedGustMPH,Humidity,HourlyPrecipIn,Conditions,Clouds,dailyrainin,SoftwareType,DateUTC
2013-03-05 00:00:00,32.2,23.5,29.77,NW,321,9.0,17.0,70,0.00,,,0.00,meteohub,2013-03-05 05:00:00,
2013-03-05 00:01:00,32.2,23.5,29.77,NNW,328,6.0,17.0,70,0.00,,,0.00,meteohub,2013-03-05 05:01:00,
2013-03-05 00:06:00,32.2,23.9,29.78,NNW,332,7.0,17.0,71,0.00,,,0.00,meteohub,2013-03-05 05:06:00,
2013-03-05 00:11:00,32.2,23.5,29.78,NNW,328,11.0,17.0,70,0.00,,,0.00,meteohub,2013-03-05 05:11:00,
2013-03-05 00:16:00,32.0,23.7,29.78,NNW,328,9.0,18.0,71,0.00,,,0.00,meteohub,2013-03-05 05:16:00,
2013-03-05 00:21:00,31.8,23.5,29.78,NW,314,4.0,18.0,71,0.00,,,0.00,meteohub,2013-03-05 05:21:00,
2013-03-05 00:26:00,31.8,23.5,29.78,NW,316,6.0,15.0,71,0.00,,,0.00,meteohub,2013-03-05 05:26:00,
2013-03-05 00:31:00,31.8,23.5,29.79,NW,311,6.0,15.0,71,0.00,,,0.00,meteohub,2013-03-05 05:31:00,
2013-03-05 00:36:00,31.6,23.4,29.79,NNW,348,4.0,13.0,71,0.00,,,0.00,meteohub,2013-03-05 05:36:00,
2013-03-05 00:41:00,31.6,23.4,29.79,North,352,6.0,14.0,71,0.00,,,0.00,meteohub,2013-03-05 05:41:00,
2013-03-05 00:46:00,31.6,23.4,29.79,NNW,335,7.0,15.0,71,0.00,,,0.00,meteohub,2013-03-05 05:46:00,
2013-03-05 00:51:00,31.6,23.4,29.79,NNW,340,10.0,15.0,71,0.00,,,0.00,meteohub,2013-03-05 05:51:00,
2013-03-05 00:56:00,31.6,23.4,29.79,NNW,342,5.0,15.0,71,0.00,,,0.00,meteohub,2013-03-05 05:56:00,
2013-03-05 01:01:00,31.6,23.7,29.79,North,356,6.0,15.0,72,0.00,,,0.00,meteohub,2013-03-05 06:01:00,
2013-03-05 01:06:00,31.8,23.9,29.80,NW,318,9.0,15.0,72,0.00,,,0.00,meteohub,2013-03-05 06:06:00,
2013-03-05 01:11:00,31.8,23.5,29.80,NNW,328,7.0,10.0,71,0.00,,,0.00,meteohub,2013-03-05 06:11:00,
2013-03-05 01:16:00,32.0,23.7,29.80,NW,314,7.0,14.0,71,0.00,,,0.00,meteohub,2013-03-05 06:16:00,
2013-03-05 01:21:00,32.2,23.5,29.80,NNW,334,6.0,14.0,70,0.00,,,0.00,meteohub,2013-03-05 06:21:00,
2013-03-05 01:26:00,32.4,23.7,29.80,NNW,332,7.0,14.0,70,0.00,,,0.00,meteohub,2013-03-05 06:26:00,
2013-03-05 01:31:00,32.4,23.7,29.81,NW,324,6.0,16.0,70,0.00,,,0.00,meteohub,2013-03-05 06:31:00,
2013-03-05 01:37:00,32.4,23.7,29.81,NW,310,11.0,16.0,70,0.00,,,0.00,meteohub,2013-03-05 06:37:00,
2013-03-05 01:42:00,32.4,23.4,29.81,NNW,336,9.0,20.0,69,0.00,,,0.00,meteohub,2013-03-05 06:42:00,
2013-03-05 01:47:00,32.4,23.7,29.81,WNW,298,6.0,20.0,70,0.00,,,0.00,meteohub,2013-03-05 06:47:00,
2013-03-05 01:52:00,32.4,23.4,29.81,NW,304,11.0,20.0,69,0.00,,,0.00,meteohub,2013-03-05 06:52:00,
2013-03-05 01:57:00,32.4,23.4,29.81,NW,305,5.0,15.0,69,0.00,,,0.00,meteohub,2013-03-05 06:57:00,
2013-03-05 02:02:00,32.4,23.4,29.81,NW,312,9.0,15.0,69,0.00,,,0.00,meteohub,2013-03-05 07:02:00,
2013-03-05 02:07:00,32.4,23.4,29.81,NNW,330,7.0,14.0,69,0.00,,,0.00,meteohub,2013-03-05 07:07:00,
2013-03-05 02:12:00,32.4,23.4,29.81,NW,312,14.0,16.0,69,0.00,,,0.00,meteohub,2013-03-05 07:12:00,
2013-03-05 02:17:00,32.2,23.2,29.81,WNW,295,6.0,19.0,69,0.00,,,0.00,meteohub,2013-03-05 07:17:00,
2013-03-05 02:22:00,32.2,23.2,29.81,NNW,328,10.0,19.0,69,0.00,,,0.00,meteohub,2013-03-05 07:22:00,
2013-03-05 02:27:00,32.0,23.0,29.81,NW,316,10.0,19.0,69,0.00,,,0.00,meteohub,2013-03-05 07:27:00,
2013-03-05 02:32:00,31.8,22.8,29.81,NNW,332,8.0,21.0,69,0.00,,,0.00,meteohub,2013-03-05 07:32:00,
2013-03-05 02:37:00,31.6,22.6,29.81,NNW,328,12.0,21.0,69,0.00,,,0.00,meteohub,2013-03-05 07:37:00,
2013-03-05 02:42:00,31.6,22.6,29.81,NW,305,8.0,21.0,69,0.00,,,0.00,meteohub,2013-03-05 07:42:00,
2013-03-05 02:47:00,31.5,22.5,29.81,NW,311,8.0,15.0,69,0.00,,,0.00,meteohub,2013-03-05 07:47:00,
2013-03-05 02:52:00,31.5,22.8,29.82,WNW,302,10.0,18.0,70,0.00,,,0.00,meteohub,2013-03-05 07:52:00,
2013-03-05 02:57:00,31.3,22.6,29.82,NNW,344,4.0,18.0,70,0.00,,,0.00,meteohub,2013-03-05 07:57:00,
2013-03-05 03:02:00,31.3,22.6,29.82,NW,311,9.0,18.0,70,0.00,,,0.00,meteohub,2013-03-05 08:02:00,
2013-03-05 03:07:00,31.1,22.8,29.82,NW,324,14.0,15.0,71,0.00,,,0.00,meteohub,2013-03-05 08:07:00,
2013-03-05 03:12:00,30.9,22.6,29.82,North,352,5.0,15.0,71,0.00,,,0.00,meteohub,2013-03-05 08:12:00,
2013-03-05 03:17:00,30.9,22.6,29.83,NW,314,8.0,15.0,71,0.00,,,0.00,meteohub,2013-03-05 08:17:00,
2013-03-05 03:22:00,30.9,22.6,29.83,WNW,300,7.0,15.0,71,0.00,,,0.00,meteohub,2013-03-05 08:22:00,
2013-03-05 03:27:00,30.9,22.6,29.83,WNW,297,6.0,14.0,71,0.00,,,0.00,meteohub,2013-03-05 08:27:00,
2013-03-05 03:32:00,30.7,22.5,29.83,NW,318,7.0,15.0,71,0.00,,,0.00,meteohub,2013-03-05 08:32:00,
2013-03-05 03:37:00,30.7,22.5,29.83,NW,322,10.0,15.0,71,0.00,,,0.00,meteohub,2013-03-05 08:37:00,
2013-03-05 03:42:00,30.7,22.5,29.83,NW,305,13.0,15.0,71,0.00,,,0.00,meteohub,2013-03-05 08:42:00,
2013-03-05 03:47:00,30.6,22.3,29.84,WNW,295,7.0,13.0,71,0.00,,,0.00,meteohub,2013-03-05 08:47:00,
2013-03-05 03:52:00,30.6,22.3,29.84,NW,308,4.0,13.0,71,0.00,,,0.00,meteohub,2013-03-05 08:52:00,
2013-03-05 03:57:00,30.6,22.6,29.84,NW,314,10.0,13.0,72,0.00,,,0.00,meteohub,2013-03-05 08:57:00,
2013-03-05 04:02:00,30.6,22.6,29.84,WNW,298,5.0,13.0,72,0.00,,,0.00,meteohub,2013-03-05 09:02:00,
2013-03-05 04:07:00,30.6,22.6,29.85,NW,322,8.0,14.0,72,0.00,,,0.00,meteohub,2013-03-05 09:07:00,
2013-03-05 04:12:00,30.6,22.6,29.85,NNW,328,5.0,16.0,72,0.00,,,0.00,meteohub,2013-03-05 09:12:00,
2013-03-05 04:17:00,30.6,22.6,29.85,NW,311,11.0,16.0,72,0.00,,,0.00,meteohub,2013-03-05 09:17:00,
2013-03-05 04:22:00,30.6,22.6,29.85,WNW,302,5.0,15.0,72,0.00,,,0.00,meteohub,2013-03-05 09:22:00,
2013-03-05 04:27:00,30.6,22.6,29.85,NNW,342,3.0,15.0,72,0.00,,,0.00,meteohub,2013-03-05 09:27:00,
2013-03-05 04:32:00,30.6,22.6,29.86,NNW,328,8.0,17.0,72,0.00,,,0.00,meteohub,2013-03-05 09:32:00,
2013-03-05 04:37:00,30.6,22.6,29.86,NW,321,5.0,17.0,72,0.00,,,0.00,meteohub,2013-03-05 09:37:00,
2013-03-05 04:42:00,30.6,22.6,29.86,NW,305,6.0,17.0,72,0.00,,,0.00,meteohub,2013-03-05 09:42:00,
2013-03-05 04:47:00,30.6,22.6,29.86,NW,304,9.0,19.0,72,0.00,,,0.00,meteohub,2013-03-05 09:47:00,
2013-03-05 04:52:00,30.6,22.6,29.87,NW,318,7.0,19.0,72,0.00,,,0.00,meteohub,2013-03-05 09:52:00,
2013-03-05 04:57:00,30.7,22.8,29.87,NW,316,9.0,15.0,72,0.00,,,0.00,meteohub,2013-03-05 09:57:00,
2013-03-05 05:02:00,30.7,22.8,29.87,NNW,332,9.0,16.0,72,0.00,,,0.00,meteohub,2013-03-05 10:02:00,
2013-03-05 05:07:00,30.6,22.6,29.87,NW,315,7.0,16.0,72,0.00,,,0.00,meteohub,2013-03-05 10:07:00,
2013-03-05 05:12:00,30.7,22.8,29.87,NW,320,6.0,16.0,72,0.00,,,0.00,meteohub,2013-03-05 10:12:00,
2013-03-05 05:17:00,30.7,22.8,29.88,WNW,290,9.0,16.0,72,0.00,,,0.00,meteohub,2013-03-05 10:17:00,
2013-03-05 05:22:00,30.7,22.8,29.88,North,353,7.0,16.0,72,0.00,,,0.00,meteohub,2013-03-05 10:22:00,
2013-03-05 05:27:00,30.7,22.8,29.88,NNW,334,6.0,15.0,72,0.00,,,0.00,meteohub,2013-03-05 10:27:00,
2013-03-05 05:32:00,30.7,22.8,29.88,NW,318,10.0,15.0,72,0.00,,,0.00,meteohub,2013-03-05 10:32:00,
2013-03-05 05:37:00,30.7,22.8,29.89,NW,308,10.0,15.0,72,0.00,,,0.00,meteohub,2013-03-05 10:37:00,
2013-03-05 05:42:00,30.7,22.8,29.89,NW,324,8.0,16.0,72,0.00,,,0.00,meteohub,2013-03-05 10:42:00,
2013-03-05 05:47:00,30.7,22.8,29.89,NW,321,8.0,18.0,72,0.00,,,0.00,meteohub,2013-03-05 10:47:00,
2013-03-05 05:52:00,30.6,22.6,29.89,NW,324,6.0,18.0,72,0.00,,,0.00,meteohub,2013-03-05 10:52:00,
2013-03-05 05:57:00,30.6,22.6,29.89,NW,311,8.0,15.0,72,0.00,,,0.00,meteohub,2013-03-05 10:57:00,
2013-03-05 06:02:00,30.6,23.0,29.89,NW,316,8.0,15.0,73,0.00,,,0.00,meteohub,2013-03-05 11:02:00,
2013-03-05 06:07:00,30.4,22.8,29.89,NNW,328,7.0,15.0,73,0.00,,,0.00,meteohub,2013-03-05 11:07:00,
2013-03-05 06:12:00,30.4,22.8,29.90,NNW,335,13.0,15.0,73,0.00,,,0.00,meteohub,2013-03-05 11:12:00,
2013-03-05 06:17:00,30.4,22.8,29.90,NW,321,8.0,15.0,73,0.00,,,0.00,meteohub,2013-03-05 11:17:00,
2013-03-05 06:22:00,30.4,22.8,29.90,NW,311,9.0,15.0,73,0.00,,,0.00,meteohub,2013-03-05 11:22:00,
2013-03-05 06:27:00,30.4,22.8,29.90,NNW,332,6.0,15.0,73,0.00,,,0.00,meteohub,2013-03-05 11:27:00,
2013-03-05 06:32:00,30.4,22.8,29.90,NW,311,9.0,12.0,73,0.00,,,0.00,meteohub,2013-03-05 11:32:00,
2013-03-05 06:37:00,30.4,22.8,29.91,NNW,345,7.0,14.0,73,0.00,,,0.00,meteohub,2013-03-05 11:37:00,
2013-03-05 06:42:00,30.7,23.2,29.91,North,9,8.0,14.0,73,0.00,,,0.00,meteohub,2013-03-05 11:42:00,
2013-03-05 06:47:00,30.7,23.2,29.91,WNW,302,5.0,14.0,73,0.00,,,0.00,meteohub,2013-03-05 11:47:00,
2013-03-05 06:52:00,30.7,23.2,29.91,NNW,342,8.0,14.0,73,0.00,,,0.00,meteohub,2013-03-05 11:52:00,
2013-03-05 06:57:00,30.7,23.2,29.91,NW,322,9.0,13.0,73,0.00,,,0.00,meteohub,2013-03-05 11:57:00,
2013-03-05 07:02:00,30.7,23.2,29.92,NW,312,9.0,13.0,73,0.00,,,0.00,meteohub,2013-03-05 12:02:00,
2013-03-05 07:07:00,30.9,23.4,29.92,NW,308,7.0,13.0,73,0.00,,,0.00,meteohub,2013-03-05 12:07:00,
2013-03-05 07:12:00,31.1,23.2,29.92,NNW,328,13.0,13.0,72,0.00,,,0.00,meteohub,2013-03-05 12:12:00,
2013-03-05 07:17:00,31.3,23.4,29.92,NNW,330,8.0,16.0,72,0.00,,,0.00,meteohub,2013-03-05 12:17:00,
2013-03-05 07:22:00,31.3,23.4,29.92,NNW,344,3.0,16.0,72,0.00,,,0.00,meteohub,2013-03-05 12:22:00,
2013-03-05 07:27:00,31.3,23.4,29.92,NNW,340,5.0,16.0,72,0.00,,,0.00,meteohub,2013-03-05 12:27:00,
2013-03-05 07:32:00,31.5,23.5,29.92,NNW,330,7.0,13.0,72,0.00,,,0.00,meteohub,2013-03-05 12:32:00,
2013-03-05 07:37:00,31.8,23.9,29.92,WNW,288,8.0,13.0,72,0.00,,,0.00,meteohub,2013-03-05 12:37:00,
2013-03-05 07:42:00,32.2,23.9,29.92,NW,304,11.0,16.0,71,0.00,,,0.00,meteohub,2013-03-05 12:42:00,
2013-03-05 07:47:00,32.7,24.1,29.92,NNW,342,8.0,16.0,70,0.00,,,0.00,meteohub,2013-03-05 12:47:00,
2013-03-05 07:52:00,33.1,24.1,29.92,NW,310,5.0,16.0,69,0.00,,,0.00,meteohub,2013-03-05 12:52:00,
2013-03-05 07:57:00,33.6,24.6,29.93,NW,305,8.0,15.0,69,0.00,,,0.00,meteohub,2013-03-05 12:57:00,
2013-03-05 08:02:00,33.8,24.4,29.92,NW,304,12.0,15.0,68,0.00,,,0.00,meteohub,2013-03-05 13:02:00,
2013-03-05 08:07:00,34.2,24.6,29.93,NNW,340,6.0,14.0,68,0.00,,,0.00,meteohub,2013-03-05 13:07:00,
2013-03-05 08:12:00,34.0,24.3,29.93,NNW,334,10.0,16.0,67,0.00,,,0.00,meteohub,2013-03-05 13:12:00,
2013-03-05 08:17:00,34.0,24.3,29.93,NW,311,14.0,16.0,67,0.00,,,0.00,meteohub,2013-03-05 13:17:00,
2013-03-05 08:22:00,34.2,24.6,29.93,NW,325,6.0,18.0,68,0.00,,,0.00,meteohub,2013-03-05 13:22:00,
2013-03-05 08:27:00,34.3,24.8,29.93,NW,325,8.0,18.0,68,0.00,,,0.00,meteohub,2013-03-05 13:27:00,
2013-03-05 08:32:00,34.5,24.6,29.93,NW,311,6.0,18.0,67,0.00,,,0.00,meteohub,2013-03-05 13:32:00,
2013-03-05 08:37:00,34.7,24.8,29.94,NW,312,7.0,14.0,67,0.00,,,0.00,meteohub,2013-03-05 13:37:00,
2013-03-05 08:42:00,35.1,24.8,29.94,North,349,5.0,16.0,66,0.00,,,0.00,meteohub,2013-03-05 13:42:00,
2013-03-05 08:47:00,35.1,24.8,29.94,NW,304,6.0,16.0,66,0.00,,,0.00,meteohub,2013-03-05 13:47:00,
2013-03-05 08:52:00,35.2,25.0,29.94,North,359,9.0,15.0,66,0.00,,,0.00,meteohub,2013-03-05 13:52:00,
2013-03-05 08:57:00,35.6,25.3,29.94,NW,316,9.0,16.0,66,0.00,,,0.00,meteohub,2013-03-05 13:57:00,
2013-03-05 09:02:00,35.8,25.2,29.94,NW,319,13.0,16.0,65,0.00,,,0.00,meteohub,2013-03-05 14:02:00,
2013-03-05 09:07:00,36.0,25.3,29.94,NNW,328,9.0,17.0,65,0.00,,,0.00,meteohub,2013-03-05 14:07:00,
2013-03-05 09:12:00,36.1,25.5,29.94,North,352,11.0,17.0,65,0.00,,,0.00,meteohub,2013-03-05 14:12:00,
2013-03-05 09:17:00,36.3,25.7,29.94,NW,316,9.0,17.0,65,0.00,,,0.00,meteohub,2013-03-05 14:17:00,
2013-03-05 09:22:00,36.7,26.1,29.94,North,358,9.0,16.0,65,0.00,,,0.00,meteohub,2013-03-05 14:22:00,
2013-03-05 09:27:00,36.9,25.9,29.94,NNW,338,5.0,16.0,64,0.00,,,0.00,meteohub,2013-03-05 14:27:00,
2013-03-05 09:32:00,37.0,26.1,29.94,NW,313,8.0,17.0,64,0.00,,,0.00,meteohub,2013-03-05 14:32:00,
2013-03-05 09:37:00,37.4,26.4,29.94,NNW,342,6.0,18.0,64,0.00,,,0.00,meteohub,2013-03-05 14:37:00,
2013-03-05 09:42:00,37.8,26.2,29.94,NW,318,12.0,20.0,63,0.00,,,0.00,meteohub,2013-03-05 14:42:00,
2013-03-05 09:47:00,38.1,26.6,29.94,NNW,330,9.0,20.0,63,0.00,,,0.00,meteohub,2013-03-05 14:47:00,
2013-03-05 09:52:00,38.7,26.8,29.94,North,352,12.0,16.0,62,0.00,,,0.00,meteohub,2013-03-05 14:52:00,
2013-03-05 09:57:00,39.2,27.3,29.94,NNW,330,10.0,16.0,62,0.00,,,0.00,meteohub,2013-03-05 14:57:00,
2013-03-05 10:02:00,39.6,27.7,29.94,NNW,343,10.0,14.0,62,0.00,,,0.00,meteohub,2013-03-05 15:02:00,
2013-03-05 10:07:00,39.7,27.3,29.94,NNW,328,6.0,15.0,61,0.00,,,0.00,meteohub,2013-03-05 15:07:00,
2013-03-05 10:12:00,39.9,28.0,29.94,NW,316,8.0,15.0,62,0.00,,,0.00,meteohub,2013-03-05 15:12:00,
2013-03-05 10:17:00,40.5,28.0,29.94,NNW,328,9.0,15.0,61,0.00,,,0.00,meteohub,2013-03-05 15:17:00,
2013-03-05 10:22:00,40.6,28.2,29.94,NNW,337,11.0,14.0,61,0.00,,,0.00,meteohub,2013-03-05 15:22:00,
2013-03-05 10:27:00,40.5,27.7,29.94,NW,322,5.0,18.0,60,0.00,,,0.00,meteohub,2013-03-05 15:27:00,
2013-03-05 10:32:00,40.8,28.4,29.94,North,5,6.0,20.0,61,0.00,,,0.00,meteohub,2013-03-05 15:32:00,
2013-03-05 10:37:00,41.4,28.6,29.94,NW,305,6.0,20.0,60,0.00,,,0.00,meteohub,2013-03-05 15:37:00,
2013-03-05 10:42:00,41.5,28.8,29.94,NNW,333,9.0,17.0,60,0.00,,,0.00,meteohub,2013-03-05 15:42:00,
2013-03-05 10:47:00,41.4,28.6,29.94,NNW,332,10.0,13.0,60,0.00,,,0.00,meteohub,2013-03-05 15:47:00,
2013-03-05 10:52:00,41.4,28.6,29.94,NW,323,13.0,15.0,60,0.00,,,0.00,meteohub,2013-03-05 15:52:00,
2013-03-05 10:57:00,42.1,29.1,29.94,NE,39,9.0,17.0,60,0.00,,,0.00,meteohub,2013-03-05 15:57:00,
2013-03-05 11:02:00,42.3,28.9,29.94,NNW,337,11.0,17.0,59,0.00,,,0.00,meteohub,2013-03-05 16:02:00,
2013-03-05 11:07:00,42.3,28.9,29.94,NW,311,11.0,17.0,59,0.00,,,0.00,meteohub,2013-03-05 16:07:00,
2013-03-05 11:12:00,42.4,28.8,29.94,NNW,337,9.0,16.0,58,0.00,,,0.00,meteohub,2013-03-05 16:12:00,
2013-03-05 11:17:00,42.6,28.9,29.94,NNW,333,8.0,16.0,58,0.00,,,0.00,meteohub,2013-03-05 16:17:00,
2013-03-05 11:22:00,42.6,28.9,29.94,NW,307,12.0,16.0,58,0.00,,,0.00,meteohub,2013-03-05 16:22:00,
2013-03-05 11:27:00,43.2,29.3,29.94,NE,51,7.0,16.0,58,0.00,,,0.00,meteohub,2013-03-05 16:27:00,
2013-03-05 11:32:00,43.5,29.3,29.94,NNW,330,13.0,16.0,57,0.00,,,0.00,meteohub,2013-03-05 16:32:00,
2013-03-05 11:37:00,43.0,28.8,29.94,WNW,287,1.0,16.0,57,0.00,,,0.00,meteohub,2013-03-05 16:37:00,
2013-03-05 11:42:00,43.9,30.0,29.94,NE,39,7.0,15.0,58,0.00,,,0.00,meteohub,2013-03-05 16:42:00,
2013-03-05 11:47:00,43.5,29.3,29.94,NNW,328,13.0,15.0,57,0.00,,,0.00,meteohub,2013-03-05 16:47:00,
2013-03-05 11:52:00,43.5,29.3,29.94,North,8,6.0,19.0,57,0.00,,,0.00,meteohub,2013-03-05 16:52:00,
2013-03-05 11:57:00,43.5,29.3,29.93,NNE,30,6.0,19.0,57,0.00,,,0.00,meteohub,2013-03-05 16:57:00,
2013-03-05 12:02:00,43.7,29.5,29.94,NNE,20,10.0,17.0,57,0.00,,,0.00,meteohub,2013-03-05 17:02:00,
2013-03-05 12:07:00,44.1,30.2,29.93,NW,317,10.0,19.0,58,0.00,,,0.00,meteohub,2013-03-05 17:07:00,
2013-03-05 12:12:00,44.4,29.7,29.94,NNW,338,8.0,19.0,56,0.00,,,0.00,meteohub,2013-03-05 17:12:00,
2013-03-05 12:17:00,44.2,30.0,29.94,North,7,9.0,17.0,57,0.00,,,0.00,meteohub,2013-03-05 17:17:00,
2013-03-05 12:22:00,43.5,29.3,29.94,NNW,338,8.0,17.0,57,0.00,,,0.00,meteohub,2013-03-05 17:22:00,
2013-03-05 12:27:00,43.9,30.0,29.94,NW,310,10.0,17.0,58,0.00,,,0.00,meteohub,2013-03-05 17:27:00,
2013-03-05 12:32:00,44.2,30.4,29.94,North,353,12.0,17.0,58,0.00,,,0.00,meteohub,2013-03-05 17:32:00,
2013-03-05 12:37:00,44.2,30.4,29.94,NNE,31,7.0,17.0,58,0.00,,,0.00,meteohub,2013-03-05 17:37:00,
2013-03-05 12:42:00,44.4,30.6,29.94,NNW,332,7.0,17.0,58,0.00,,,0.00,meteohub,2013-03-05 17:42:00,
2013-03-05 12:47:00,44.6,30.4,29.94,NNE,15,15.0,17.0,57,0.00,,,0.00,meteohub,2013-03-05 17:47:00,
2013-03-05 12:52:00,44.2,30.0,29.94,NNE,32,1.0,18.0,57,0.00,,,0.00,meteohub,2013-03-05 17:52:00,
2013-03-05 12:57:00,44.4,30.2,29.94,NNW,337,6.0,18.0,57,0.00,,,0.00,meteohub,2013-03-05 17:57:00,
2013-03-05 13:02:00,44.2,30.0,29.93,NW,307,8.0,18.0,57,0.00,,,0.00,meteohub,2013-03-05 18:02:00,
2013-03-05 13:07:00,44.2,30.0,29.94,NNE,20,7.0,14.0,57,0.00,,,0.00,meteohub,2013-03-05 18:07:00,
2013-03-05 13:12:00,43.9,30.0,29.94,NNW,347,12.0,13.0,58,0.00,,,0.00,meteohub,2013-03-05 18:12:00,
2013-03-05 13:17:00,44.1,30.2,29.94,NNW,346,5.0,13.0,58,0.00,,,0.00,meteohub,2013-03-05 18:17:00,
2013-03-05 13:22:00,44.4,30.6,29.94,ESE,116,1.0,13.0,58,0.00,,,0.00,meteohub,2013-03-05 18:22:00,
2013-03-05 13:27:00,44.8,30.6,29.94,ESE,112,1.0,13.0,57,0.00,,,0.00,meteohub,2013-03-05 18:27:00,
2013-03-05 13:32:00,45.3,30.6,29.94,NNW,348,8.0,13.0,56,0.00,,,0.00,meteohub,2013-03-05 18:32:00,
2013-03-05 13:37:00,45.3,30.0,29.94,NW,317,6.0,12.0,55,0.00,,,0.00,meteohub,2013-03-05 18:37:00,
2013-03-05 13:42:00,44.8,30.6,29.94,NNW,328,5.0,11.0,57,0.00,,,0.00,meteohub,2013-03-05 18:42:00,
2013-03-05 13:47:00,44.8,30.9,29.94,NNE,33,3.0,11.0,58,0.00,,,0.00,meteohub,2013-03-05 18:47:00,
2013-03-05 13:52:00,44.8,30.6,29.95,NE,47,9.0,11.0,57,0.00,,,0.00,meteohub,2013-03-05 18:52:00,
2013-03-05 13:57:00,44.4,30.6,29.95,ENE,60,5.0,11.0,58,0.00,,,0.00,meteohub,2013-03-05 18:57:00,
2013-03-05 14:02:00,44.6,30.7,29.95,North,356,4.0,11.0,58,0.00,,,0.00,meteohub,2013-03-05 19:02:00,
2013-03-05 14:07:00,44.8,30.9,29.95,North,9,7.0,11.0,58,0.00,,,0.00,meteohub,2013-03-05 19:07:00,
2013-03-05 14:12:00,44.8,30.6,29.95,NE,45,5.0,9.0,57,0.00,,,0.00,meteohub,2013-03-05 19:12:00,
2013-03-05 14:17:00,45.0,31.1,29.96,NNW,338,3.0,9.0,58,0.00,,,0.00,meteohub,2013-03-05 19:17:00,
2013-03-05 14:22:00,45.0,30.6,29.96,NNW,335,0.0,9.0,57,0.00,,,0.00,meteohub,2013-03-05 19:22:00,
2013-03-05 14:27:00,45.1,30.7,29.96,East,91,4.0,9.0,57,0.00,,,0.00,meteohub,2013-03-05 19:27:00,
2013-03-05 14:32:00,45.1,30.7,29.96,NNE,30,2.0,8.0,57,0.00,,,0.00,meteohub,2013-03-05 19:32:00,
2013-03-05 14:37:00,45.0,30.6,29.96,NNE,13,4.0,11.0,57,0.00,,,0.00,meteohub,2013-03-05 19:37:00,
2013-03-05 14:42:00,44.8,30.6,29.96,ENE,58,6.0,11.0,57,0.00,,,0.00,meteohub,2013-03-05 19:42:00,
2013-03-05 14:47:00,44.8,30.9,29.96,NNW,348,3.0,11.0,58,0.00,,,0.00,meteohub,2013-03-05 19:47:00,
2013-03-05 14:52:00,45.0,30.6,29.97,ENE,65,2.0,11.0,57,0.00,,,0.00,meteohub,2013-03-05 19:52:00,
2013-03-05 14:57:00,44.8,30.6,29.97,North,5,3.0,11.0,57,0.00,,,0.00,meteohub,2013-03-05 19:57:00,
2013-03-05 15:02:00,45.0,30.6,29.97,NNE,15,3.0,10.0,57,0.00,,,0.00,meteohub,2013-03-05 20:02:00,
2013-03-05 15:07:00,45.0,30.6,29.97,NNW,338,6.0,10.0,57,0.00,,,0.00,meteohub,2013-03-05 20:07:00,
2013-03-05 15:12:00,45.0,30.6,29.98,NNW,340,6.0,10.0,57,0.00,,,0.00,meteohub,2013-03-05 20:12:00,
2013-03-05 15:17:00,45.0,30.6,29.98,North,0,9.0,9.0,57,0.00,,,0.00,meteohub,2013-03-05 20:17:00,
2013-03-05 15:22:00,44.8,30.6,29.98,NNE,20,5.0,12.0,57,0.00,,,0.00,meteohub,2013-03-05 20:22:00,
2013-03-05 15:27:00,44.8,30.9,29.98,NNE,27,6.0,12.0,58,0.00,,,0.00,meteohub,2013-03-05 20:27:00,
2013-03-05 15:32:00,44.8,30.9,29.98,NE,37,0.0,12.0,58,0.00,,,0.00,meteohub,2013-03-05 20:32:00,
2013-03-05 15:37:00,44.8,30.9,29.99,NE,46,3.0,9.0,58,0.00,,,0.00,meteohub,2013-03-05 20:37:00,
2013-03-05 15:42:00,44.8,30.9,29.99,NE,51,4.0,9.0,58,0.00,,,0.00,meteohub,2013-03-05 20:42:00,
2013-03-05 15:47:00,44.6,31.1,29.99,ENE,72,6.0,11.0,59,0.00,,,0.00,meteohub,2013-03-05 20:47:00,
2013-03-05 15:52:00,44.4,31.5,29.99,ENE,61,5.0,11.0,60,0.00,,,0.00,meteohub,2013-03-05 20:52:00,
2013-03-05 15:57:00,44.1,31.5,29.99,East,90,3.0,11.0,61,0.00,,,0.00,meteohub,2013-03-05 20:57:00,
2013-03-05 16:02:00,43.9,31.6,30.00,ENE,60,8.0,11.0,62,0.00,,,0.00,meteohub,2013-03-05 21:02:00,
2013-03-05 16:07:00,43.9,31.6,30.00,NE,53,9.0,11.0,62,0.00,,,0.00,meteohub,2013-03-05 21:07:00,
2013-03-05 16:12:00,43.5,31.8,30.00,NE,51,6.0,10.0,63,0.00,,,0.00,meteohub,2013-03-05 21:12:00,
2013-03-05 16:17:00,43.5,31.8,30.00,ENE,68,5.0,12.0,63,0.00,,,0.00,meteohub,2013-03-05 21:17:00,
2013-03-05 16:22:00,43.3,32.4,30.00,East,88,5.0,12.0,65,0.00,,,0.00,meteohub,2013-03-05 21:22:00,
2013-03-05 16:27:00,42.6,32.4,30.01,East,93,5.0,12.0,67,0.00,,,0.00,meteohub,2013-03-05 21:27:00,
2013-03-05 16:32:00,42.4,32.7,30.01,SE,128,1.0,11.0,68,0.00,,,0.00,meteohub,2013-03-05 21:32:00,
2013-03-05 16:37:00,42.1,33.1,30.01,ESE,103,5.0,8.0,70,0.00,,,0.00,meteohub,2013-03-05 21:37:00,
2013-03-05 16:42:00,41.9,32.9,30.01,ESE,116,3.0,7.0,70,0.00,,,0.00,meteohub,2013-03-05 21:42:00,
2013-03-05 16:47:00,41.7,32.7,30.01,East,82,2.0,7.0,70,0.00,,,0.00,meteohub,2013-03-05 21:47:00,
2013-03-05 16:52:00,41.7,33.1,30.01,East,97,1.0,7.0,71,0.00,,,0.00,meteohub,2013-03-05 21:52:00,
2013-03-05 16:57:00,41.7,33.1,30.01,East,100,2.0,7.0,71,0.00,,,0.00,meteohub,2013-03-05 21:57:00,
2013-03-05 17:02:00,41.5,32.9,30.01,ESE,113,1.0,5.0,71,0.00,,,0.00,meteohub,2013-03-05 22:02:00,
2013-03-05 17:07:00,41.5,32.9,30.02,SE,126,0.0,5.0,71,0.00,,,0.00,meteohub,2013-03-05 22:07:00,
2013-03-05 17:12:00,41.5,32.9,30.02,SE,134,0.0,5.0,71,0.00,,,0.00,meteohub,2013-03-05 22:12:00,
2013-03-05 17:17:00,41.5,33.3,30.02,ESE,123,0.0,3.0,72,0.00,,,0.00,meteohub,2013-03-05 22:17:00,
2013-03-05 17:22:00,41.5,32.9,30.01,SE,125,0.0,2.0,71,0.00,,,0.00,meteohub,2013-03-05 22:22:00,
2013-03-05 17:27:00,41.4,33.1,30.01,SE,128,0.0,2.0,72,0.00,,,0.00,meteohub,2013-03-05 22:27:00,
2013-03-05 17:32:00,41.4,33.1,30.01,SE,128,0.0,1.0,72,0.00,,,0.00,meteohub,2013-03-05 22:32:00,
2013-03-05 17:38:00,41.4,33.1,30.01,SE,141,0.0,1.0,72,0.00,,,0.00,meteohub,2013-03-05 22:38:00,
2013-03-05 17:43:00,41.4,33.4,30.01,SE,141,0.0,1.0,73,0.00,,,0.00,meteohub,2013-03-05 22:43:00,
2013-03-05 17:48:00,41.4,33.4,30.01,SE,141,0.0,0.0,73,0.00,,,0.00,meteohub,2013-03-05 22:48:00,
2013-03-05 17:53:00,41.2,33.3,30.02,SE,142,0.0,0.0,73,0.00,,,0.00,meteohub,2013-03-05 22:53:00,
2013-03-05 17:58:00,41.2,33.8,30.02,SSE,152,0.0,0.0,75,0.00,,,0.00,meteohub,2013-03-05 22:58:00,
2013-03-05 18:03:00,40.8,33.8,30.02,SSE,152,0.0,0.0,76,0.00,,,0.00,meteohub,2013-03-05 23:03:00,
2013-03-05 18:08:00,40.6,33.6,30.02,SSE,152,0.0,0.0,76,0.00,,,0.00,meteohub,2013-03-05 23:08:00,
2013-03-05 18:13:00,40.3,33.1,30.02,SSE,153,0.0,0.0,75,0.00,,,0.00,meteohub,2013-03-05 23:13:00,
2013-03-05 18:18:00,39.9,33.3,30.02,SSE,152,0.0,0.0,77,0.00,,,0.00,meteohub,2013-03-05 23:18:00,
2013-03-05 18:23:00,39.7,33.1,30.02,SSE,152,0.0,0.0,77,0.00,,,0.00,meteohub,2013-03-05 23:23:00,
2013-03-05 18:28:00,39.6,32.5,30.03,SSE,152,0.0,0.0,76,0.00,,,0.00,meteohub,2013-03-05 23:28:00,
2013-03-05 18:33:00,39.6,32.5,30.03,SSE,152,0.0,0.0,76,0.00,,,0.00,meteohub,2013-03-05 23:33:00,
2013-03-05 18:38:00,39.4,32.5,30.03,SSE,152,0.0,0.0,76,0.00,,,0.00,meteohub,2013-03-05 23:38:00,
2013-03-05 18:43:00,39.0,32.2,30.03,SSE,153,0.0,0.0,76,0.00,,,0.00,meteohub,2013-03-05 23:43:00,
2013-03-05 18:48:00,38.7,32.0,30.04,SSE,152,0.0,0.0,77,0.00,,,0.00,meteohub,2013-03-05 23:48:00,
2013-03-05 18:53:00,38.1,31.8,30.04,SSE,152,0.0,0.0,78,0.00,,,0.00,meteohub,2013-03-05 23:53:00,
2013-03-05 18:58:00,37.6,31.6,30.04,SSE,152,0.0,0.0,79,0.00,,,0.00,meteohub,2013-03-05 23:58:00,
2013-03-05 19:03:00,37.2,31.6,30.04,SSE,152,0.0,0.0,80,0.00,,,0.00,meteohub,2013-03-06 00:03:00,
2013-03-05 19:08:00,36.9,31.3,30.04,SSE,153,0.0,0.0,80,0.00,,,0.00,meteohub,2013-03-06 00:08:00,
2013-03-05 19:13:00,36.7,31.5,30.04,SSE,153,0.0,0.0,81,0.00,,,0.00,meteohub,2013-03-06 00:13:00,
2013-03-05 19:18:00,36.3,31.6,30.04,SSE,152,0.0,0.0,83,0.00,,,0.00,meteohub,2013-03-06 00:18:00,
2013-03-05 19:23:00,36.3,32.2,30.04,SSE,152,0.0,0.0,85,0.00,,,0.00,meteohub,2013-03-06 00:23:00,
2013-03-05 19:28:00,36.1,32.4,30.04,SSE,152,0.0,0.0,86,0.00,,,0.00,meteohub,2013-03-06 00:28:00,
2013-03-05 19:33:00,35.8,32.0,30.05,SSE,153,0.0,0.0,86,0.00,,,0.00,meteohub,2013-03-06 00:33:00,
2013-03-05 19:38:00,35.2,31.5,30.05,SSE,153,0.0,0.0,86,0.00,,,0.00,meteohub,2013-03-06 00:38:00,
2013-03-05 19:43:00,34.9,31.5,30.05,SSE,152,0.0,0.0,87,0.00,,,0.00,meteohub,2013-03-06 00:43:00,
2013-03-05 19:48:00,34.9,31.5,30.05,SSE,152,0.0,0.0,87,0.00,,,0.00,meteohub,2013-03-06 00:48:00,
2013-03-05 19:53:00,35.1,31.3,30.05,SSE,153,0.0,0.0,86,0.00,,,0.00,meteohub,2013-03-06 00:53:00,
2013-03-05 19:58:00,35.2,31.1,30.05,SSE,153,0.0,0.0,85,0.00,,,0.00,meteohub,2013-03-06 00:58:00,
2013-03-05 20:03:00,35.4,31.1,30.05,SSE,152,0.0,0.0,84,0.00,,,0.00,meteohub,2013-03-06 01:03:00,
2013-03-05 20:08:00,35.4,31.1,30.05,NE,35,0.0,0.0,84,0.00,,,0.00,meteohub,2013-03-06 01:08:00,
2013-03-05 20:13:00,35.8,31.5,30.05,North,4,1.0,0.0,84,0.00,,,0.00,meteohub,2013-03-06 01:13:00,
2013-03-05 20:18:00,36.1,31.5,30.05,NNE,25,1.0,1.0,83,0.00,,,0.00,meteohub,2013-03-06 01:18:00,
2013-03-05 20:23:00,36.1,31.5,30.05,North,6,0.0,2.0,83,0.00,,,0.00,meteohub,2013-03-06 01:23:00,
2013-03-05 20:28:00,36.3,31.6,30.05,North,8,0.0,2.0,83,0.00,,,0.00,meteohub,2013-03-06 01:28:00,
2013-03-05 20:34:00,36.3,31.6,30.04,North,356,1.0,2.0,83,0.00,,,0.00,meteohub,2013-03-06 01:34:00,
2013-03-05 20:38:00,36.3,32.0,30.04,NNW,346,0.0,3.0,84,0.00,,,0.00,meteohub,2013-03-06 01:38:00,
2013-03-05 20:44:00,36.1,31.5,30.04,NNW,328,0.0,3.0,83,0.00,,,0.00,meteohub,2013-03-06 01:44:00,
2013-03-05 20:49:00,36.1,31.5,30.05,NNW,328,0.0,3.0,83,0.00,,,0.00,meteohub,2013-03-06 01:49:00,
2013-03-05 20:53:00,35.6,30.9,30.05,WNW,297,0.0,3.0,83,0.00,,,0.00,meteohub,2013-03-06 01:53:00,
2013-03-05 20:58:00,34.9,30.9,30.05,WNW,289,0.0,1.0,85,0.00,,,0.00,meteohub,2013-03-06 01:58:00,
2013-03-05 21:03:00,34.3,30.6,30.05,WNW,290,0.0,1.0,86,0.00,,,0.00,meteohub,2013-03-06 02:03:00,
2013-03-05 21:09:00,33.8,30.4,30.05,WNW,290,0.0,1.0,87,0.00,,,0.00,meteohub,2013-03-06 02:09:00,
2013-03-05 21:14:00,33.3,30.0,30.06,WNW,288,0.0,1.0,88,0.00,,,0.00,meteohub,2013-03-06 02:14:00,
2013-03-05 21:19:00,32.7,29.8,30.05,WNW,290,0.0,0.0,89,0.00,,,0.00,meteohub,2013-03-06 02:19:00,
2013-03-05 21:24:00,32.7,30.2,30.05,NW,325,0.0,0.0,90,0.00,,,0.00,meteohub,2013-03-06 02:24:00,
2013-03-05 21:29:00,32.5,30.0,30.05,NW,324,0.0,0.0,90,0.00,,,0.00,meteohub,2013-03-06 02:29:00,
2013-03-05 21:34:00,32.4,29.8,30.05,NW,325,0.0,0.0,90,0.00,,,0.00,meteohub,2013-03-06 02:34:00,
2013-03-05 21:39:00,32.2,29.7,30.05,NW,325,0.0,0.0,90,0.00,,,0.00,meteohub,2013-03-06 02:39:00,
2013-03-05 21:44:00,31.8,29.3,30.06,NW,324,0.0,0.0,90,0.00,,,0.00,meteohub,2013-03-06 02:44:00,
2013-03-05 21:49:00,31.6,29.3,30.06,NW,325,0.0,0.0,91,0.00,,,0.00,meteohub,2013-03-06 02:49:00,
2013-03-05 21:54:00,31.5,29.1,30.06,NW,325,0.0,0.0,91,0.00,,,0.00,meteohub,2013-03-06 02:54:00,
2013-03-05 21:59:00,31.5,29.1,30.06,NW,325,0.0,0.0,91,0.00,,,0.00,meteohub,2013-03-06 02:59:00,
2013-03-05 22:04:00,31.3,28.9,30.06,NW,324,0.0,0.0,91,0.00,,,0.00,meteohub,2013-03-06 03:04:00,
2013-03-05 22:09:00,30.9,28.6,30.07,NW,324,0.0,0.0,91,0.00,,,0.00,meteohub,2013-03-06 03:09:00,
2013-03-05 22:14:00,31.1,29.1,30.08,WNW,302,0.0,0.0,92,0.00,,,0.00,meteohub,2013-03-06 03:14:00,
2013-03-05 22:19:00,30.9,28.9,30.08,WNW,302,0.0,0.0,92,0.00,,,0.00,meteohub,2013-03-06 03:19:00,
2013-03-05 22:24:00,30.6,28.6,30.07,WNW,302,0.0,0.0,92,0.00,,,0.00,meteohub,2013-03-06 03:24:00,
2013-03-05 22:29:00,30.4,28.4,30.07,NW,304,0.0,0.0,92,0.00,,,0.00,meteohub,2013-03-06 03:29:00,
2013-03-05 22:34:00,30.4,28.6,30.07,NNE,15,0.0,0.0,93,0.00,,,0.00,meteohub,2013-03-06 03:34:00,
2013-03-05 22:39:00,30.6,28.8,30.07,NNE,16,0.0,0.0,93,0.00,,,0.00,meteohub,2013-03-06 03:39:00,
2013-03-05 22:44:00,30.4,28.4,30.06,NE,36,0.0,1.0,92,0.00,,,0.00,meteohub,2013-03-06 03:44:00,
2013-03-05 22:49:00,30.4,28.4,30.05,NNE,20,1.0,1.0,92,0.00,,,0.00,meteohub,2013-03-06 03:49:00,
2013-03-05 22:54:00,30.2,28.2,30.05,North,9,1.0,1.0,92,0.00,,,0.00,meteohub,2013-03-06 03:54:00,
2013-03-05 22:59:00,30.4,28.6,30.05,North,359,0.0,1.0,93,0.00,,,0.00,meteohub,2013-03-06 03:59:00,
2013-03-05 23:04:00,30.4,28.6,30.05,North,11,0.0,2.0,93,0.00,,,0.00,meteohub,2013-03-06 04:04:00,
2013-03-05 23:09:00,30.6,28.8,30.05,North,6,1.0,2.0,93,0.00,,,0.00,meteohub,2013-03-06 04:09:00,
2013-03-05 23:14:00,30.4,28.6,30.04,NNE,33,2.0,2.0,93,0.00,,,0.00,meteohub,2013-03-06 04:14:00,
2013-03-05 23:19:00,30.4,28.6,30.04,NE,40,1.0,3.0,93,0.00,,,0.00,meteohub,2013-03-06 04:19:00,
2013-03-05 23:24:00,30.6,28.8,30.04,NNE,30,0.0,3.0,93,0.00,,,0.00,meteohub,2013-03-06 04:24:00,
2013-03-05 23:29:00,30.6,28.8,30.04,North,0,0.0,3.0,93,0.00,,,0.00,meteohub,2013-03-06 04:29:00,
2013-03-05 23:34:00,30.4,28.6,30.04,North,359,0.0,3.0,93,0.00,,,0.00,meteohub,2013-03-06 04:34:00,
2013-03-05 23:39:00,30.4,28.6,30.04,North,1,0.0,2.0,93,0.00,,,0.00,meteohub,2013-03-06 04:39:00,
2013-03-05 23:44:00,30.4,28.9,30.04,North,1,0.0,1.0,94,0.00,,,0.00,meteohub,2013-03-06 04:44:00,
2013-03-05 23:49:00,30.4,28.9,30.04,North,1,0.0,1.0,94,0.00,,,0.00,meteohub,2013-03-06 04:49:00,
2013-03-05 23:54:00,30.4,28.9,30.04,North,1,0.0,1.0,94,0.00,,,0.00,meteohub,2013-03-06 04:54:00,
2013-03-05 23:59:00,30.4,28.9,30.04,North,358,0.0,0.0,94,0.00,,,0.00,meteohub,2013-03-06 04:59:00,